EW7114 Weather Reports


time (UTC)temp
F
wind
direction
speed
knots
gust
knots
rain 1hr
in
rain 24hr
in
rain mn
in
humidity
%
barometer
mb
20260903084540 51 265 0.0 5.2 0.00 0.00 0.00 53 1002.7
20260903084040 51 265 0.0 5.2 0.00 0.00 0.00 54 1002.6
20260903083539 52 265 0.0 0.0 0.00 0.00 0.00 54 1002.7
20260903083039 52 265 0.0 0.0 0.00 0.00 0.00 49 1002.6
20260903082537 51 265 0.0 2.6 0.00 0.00 0.00 53 1002.5
20260903082037 49 265 0.9 2.6 0.00 0.00 0.00 54 1002.6
20260903081542 48 265 0.9 2.6 0.00 0.00 0.00 54 1002.6
20260903081036 47 265 0.9 2.6 0.00 0.00 0.00 54 1002.5
20260903080518 47 265 1.7 2.6 0.00 0.00 0.00 55 1002.5
20260903080035 48 265 0.0 3.5 0.00 0.00 0.00 55 1002.4
20260903075535 50 265 1.7 3.5 0.00 0.00 0.00 54 1002.3
20260903075033 52 103 0.0 0.0 0.00 0.00 0.00 53 1002.3
20260903074534 52 103 0.0 0.0 0.00 0.00 0.00 53 1002.3
20260903074035 53 103 0.0 0.0 0.00 0.00 0.00 54 1002.3
20260903073530 53 103 0.0 0.0 0.00 0.00 0.00 54 1002.2
20260903073031 52 103 0.0 0.0 0.00 0.00 0.00 54 1002.2
20260903072529 51 103 0.0 3.5 0.00 0.00 0.00 54 1002.1
20260903072034 51 103 0.0 3.5 0.00 0.00 0.00 54 1002.0
20260903071528 50 239 0.0 4.3 0.00 0.00 0.00 54 1001.9
20260903071026 51 239 0.0 6.1 0.00 0.00 0.00 54 1001.9
20260903070524 54 234 2.6 4.3 0.00 0.00 0.00 52 1001.7
20260903070033 56 234 1.7 4.3 0.00 0.00 0.00 49 1001.7
20260903065523 58 234 1.7 4.3 0.00 0.00 0.00 47 1001.8
20260903065021 57 234 0.0 7.0 0.00 0.00 0.00 49 1001.7
20260903064521 58 228 4.3 7.0 0.00 0.00 0.00 50 1001.7
20260903064019 59 97 0.0 2.6 0.00 0.00 0.00 51 1001.6
20260903063518 60 97 0.0 2.6 0.00 0.00 0.00 46 1001.7
20260903063016 62 97 0.9 2.6 0.00 0.00 0.00 45 1001.6
20260903062516 62 97 0.9 2.6 0.00 0.00 0.00 42 1001.4
20260903062018 62 132 0.0 2.6 0.00 0.00 0.00 43 1001.4
20260903061515 62 132 1.7 3.5 0.00 0.00 0.00 44 1001.4
20260903061012 63 132 1.7 3.5 0.00 0.00 0.00 45 1001.4
20260903060512 64 143 2.6 4.3 0.00 0.00 0.00 44 1001.4
20260903060012 64 61 0.9 4.3 0.00 0.00 0.00 41 1001.3
20260903055510 64 329 1.7 7.0 0.00 0.00 0.00 41 1001.2
20260903055009 64 21 2.6 5.2 0.00 0.00 0.00 42 1001.2
20260903054529 63 62 0.0 4.3 0.00 0.00 0.00 41 1001.3
20260903054010 63 62 1.7 4.3 0.00 0.00 0.00 45 1001.2
20260903053509 63 212 0.9 4.3 0.00 0.00 0.00 44 1001.2
20260903053008 64 212 1.7 4.3 0.00 0.00 0.00 42 1001.2
20260903052508 64 350 1.7 3.5 0.00 0.00 0.00 43 1001.2
20260903052008 64 259 0.0 1.7 0.00 0.00 0.00 41 1001.2
20260903051508 65 330 0.0 1.7 0.00 0.00 0.00 41 1001.3
20260903051011 65 330 0.0 3.5 0.00 0.00 0.00 41 1001.4
20260903050507 65 330 1.7 3.5 0.00 0.00 0.00 39 1001.4
20260903050009 66 5 0.0 0.9 0.00 0.00 0.00 39 1001.4
20260903045510 66 9 0.0 1.7 0.00 0.00 0.00 39 1001.5
20260903045007 66 18 0.0 1.7 0.00 0.00 0.00 42 1001.4
20260903044507 66 14 0.0 3.5 0.00 0.00 0.00 38 1001.6
20260903044007 65 5 1.7 3.5 0.00 0.00 0.00 38 1001.6
20260903043506 65 307 1.7 3.5 0.00 0.00 0.00 37 1001.6
20260903043009 65 310 1.7 5.2 0.00 0.00 0.00 38 1001.6
20260903042506 65 310 2.6 5.2 0.00 0.00 0.00 39 1001.6
20260903042106 65 318 3.5 5.2 0.00 0.00 0.00 39 1001.5
20260903041506 66 318 3.5 5.2 0.00 0.00 0.00 38 1001.5
20260903041006 66 307 1.7 5.2 0.00 0.00 0.00 39 1001.4
20260903040505 67 307 3.5 7.0 0.00 0.00 0.00 36 1001.4
20260903040008 69 278 4.3 7.0 0.00 0.00 0.00 35 1001.3
20260903035505 70 328 1.7 5.2 0.00 0.00 0.00 33 1001.2
20260903035004 70 16 1.7 5.2 0.00 0.00 0.00 33 1001.1
20260903034504 70 326 1.7 4.3 0.00 0.00 0.00 33 1001.1
20260903034004 70 3 2.6 8.7 0.00 0.00 0.00 36 1001.1
20260903033503 70 330 3.5 8.7 0.00 0.00 0.00 31 1001.1
20260903033003 69 1 5.2 7.8 0.00 0.00 0.00 30 1001.1
20260903032504 70 100 1.7 5.2 0.00 0.00 0.00 25 1001.0
20260903032003 71 163 2.6 7.0 0.00 0.00 0.00 23 1000.8
20260903031503 71 187 3.5 8.7 0.00 0.00 0.00 23 1000.8
20260903031006 72 197 6.1 10.4 0.00 0.00 0.00 21 1000.7
20260903030503 72 198 6.1 11.3 0.00 0.00 0.00 22 1000.6
20260903030009 72 178 4.3 8.7 0.00 0.00 0.00 22 1000.5
20260903025502 72 175 6.1 9.6 0.00 0.00 0.00 21 1000.3
20260903025002 73 170 5.2 11.3 0.00 0.00 0.00 20 1000.3
20260903024503 73 195 7.0 13.0 0.00 0.00 0.00 20 1000.3
20260903024001 72 172 7.8 13.0 0.00 0.00 0.00 21 1000.3
20260903023501 71 199 7.8 10.4 0.00 0.00 0.00 21 1000.3
20260903023002 71 187 7.0 10.4 0.00 0.00 0.00 21 1000.2
20260903022502 71 181 6.1 13.9 0.00 0.00 0.00 22 1000.2
20260903022002 71 244 9.6 13.9 0.00 0.00 0.00 21 1000.1
20260903021502 69 188 6.1 9.6 0.00 0.00 0.00 23 1000.1
20260903021001 70 174 4.3 7.8 0.00 0.00 0.00 23 1000.2
20260903020502 70 171 5.2 7.8 0.00 0.00 0.00 23 1000.2
20260903020100 71 197 4.3 7.0 0.00 0.00 0.00 23 1000.2
20260903015600 71 174 5.2 7.0 0.00 0.00 0.00 22 1000.2
20260903015100 72 169 4.3 6.1 0.00 0.00 0.00 23 1000.1
20260903014600 73 184 4.3 7.8 0.00 0.00 0.00 22 1000.1
20260903014100 74 191 4.3 12.2 0.00 0.00 0.00 22 1000.1
20260903013559 75 203 6.1 16.5 0.00 0.00 0.00 20 1000.2
20260903013105 76 212 9.6 16.5 0.00 0.00 0.00 19 1000.2
20260903012600 76 211 8.7 13.9 0.00 0.00 0.00 19 1000.2
20260903012100 76 222 6.1 9.6 0.00 0.00 0.00 21 1000.2
20260903011606 76 215 3.5 8.7 0.00 0.00 0.00 23 1000.3
20260903011058 77 201 4.3 10.4 0.00 0.00 0.00 22 1000.3
20260903010557 77 192 7.0 17.4 0.00 0.00 0.00 20 1000.3
20260903010111 78 192 9.6 17.4 0.00 0.00 0.00 19 1000.3
20260903005556 78 184 10.4 13.9 0.00 0.00 0.00 20 1000.2
20260903005055 78 135 10.4 16.5 0.00 0.00 0.00 20 1000.1
20260903004559 78 158 9.6 13.9 0.00 0.00 0.00 22 1000.1
20260903004055 79 168 8.7 17.4 0.00 0.00 0.00 22 1000.1
20260903003554 79 148 10.4 17.4 0.00 0.00 0.00 21 1000.1
20260903003056 80 157 12.2 18.2 0.00 0.00 0.00 20 1000.2
20260903002553 81 139 10.4 17.4 0.00 0.00 0.00 20 1000.2
20260903002054 81 168 12.2 20.0 0.00 0.00 0.00 19 1000.3
20260903001553 81 153 14.8 17.4 0.00 0.00 0.00 21 1000.2
20260903001053 82 144 13.0 21.7 0.00 0.00 0.00 19 1000.3
20260903000552 81 153 17.4 21.7 0.00 0.00 0.00 20 1000.2
20260903000053 81 154 13.0 20.9 0.00 0.00 0.00 21 1000.2
20260902235551 81 142 13.9 20.9 0.00 0.00 0.00 20 1000.3
20260902235053 81 182 14.8 20.9 0.00 0.00 0.00 20 1000.3
20260902234548 81 130 13.9 21.7 0.00 0.00 0.00 20 1000.4
20260902234049 81 163 16.5 21.7 0.00 0.00 0.00 20 1000.4
20260902233547 80 169 13.0 25.2 0.00 0.00 0.00 21 1000.5
20260902233047 80 154 14.8 26.1 0.00 0.00 0.00 21 1000.5
20260902232545 79 174 13.0 23.5 0.00 0.00 0.00 22 1000.5
20260902232046 79 129 13.9 20.9 0.00 0.00 0.00 21 1000.5
20260902231550 80 163 13.0 20.0 0.00 0.00 0.00 21 1000.5
20260902231048 81 197 13.0 20.0 0.00 0.00 0.00 21 1000.6
20260902230547 81 158 13.0 22.6 0.00 0.00 0.00 21 1000.6
20260902230044 82 178 15.6 19.1 0.00 0.00 0.00 20 1000.6
20260902225544 80 176 12.2 19.1 0.00 0.00 0.00 22 1000.6
20260902225044 80 176 11.3 22.6 0.00 0.00 0.00 22 1000.6
20260902224543 79 157 14.8 22.6 0.00 0.00 0.00 22 1000.6
20260902224042 80 136 14.8 25.2 0.00 0.00 0.00 22 1000.6
20260902223542 80 157 17.4 25.2 0.00 0.00 0.00 21 1000.6
20260902223041 81 143 15.6 24.3 0.00 0.00 0.00 22 1000.7
20260902222541 80 184 13.0 20.9 0.00 0.00 0.00 21 1000.7
20260902222043 80 170 13.0 20.0 0.00 0.00 0.00 22 1000.9
20260902221539 80 160 14.8 20.9 0.00 0.00 0.00 23 1000.8
20260902221039 81 149 13.0 20.9 0.00 0.00 0.00 22 1001.0
20260902220539 81 148 14.8 21.7 0.00 0.00 0.00 22 1001.0
20260902220040 81 188 13.9 20.0 0.00 0.00 0.00 22 1001.0
20260902215536 82 150 12.2 26.1 0.00 0.00 0.00 22 1001.1
20260902215038 82 151 15.6 27.8 0.00 0.00 0.00 22 1001.1
20260902214538 81 139 9.6 18.2 0.00 0.00 0.00 22 1001.2
20260902214035 81 181 11.3 20.9 0.00 0.00 0.00 22 1001.3
20260902213635 81 201 13.0 20.9 0.00 0.00 0.00 22 1001.4
20260902213033 80 194 13.9 26.9 0.00 0.00 0.00 22 1001.4
20260902212533 80 197 17.4 26.9 0.00 0.00 0.00 23 1001.5
20260902212033 81 169 10.4 17.4 0.00 0.00 0.00 23 1001.3
20260902211532 81 193 10.4 20.9 0.00 0.00 0.00 23 1001.5
20260902211032 82 186 13.9 21.7 0.00 0.00 0.00 22 1001.7
20260902210534 81 204 12.2 19.1 0.00 0.00 0.00 23 1001.5
20260902210036 81 158 12.2 21.7 0.00 0.00 0.00 23 1001.5
20260902205530 81 206 12.2 21.7 0.00 0.00 0.00 24 1001.6
20260902205030 82 195 10.4 20.9 0.00 0.00 0.00 22 1001.5
20260902204539 81 197 13.9 20.9 0.00 0.00 0.00 25 1001.6
20260902204029 80 161 13.0 19.1 0.00 0.00 0.00 23 1001.7
20260902203527 81 174 12.2 20.9 0.00 0.00 0.00 24 1001.7
20260902203027 81 194 12.2 25.2 0.00 0.00 0.00 25 1001.7
20260902202526 81 168 13.9 22.6 0.00 0.00 0.00 26 1001.7
20260902202026 81 201 15.6 20.0 0.00 0.00 0.00 24 1001.8
20260902201530 81 138 12.2 21.7 0.00 0.00 0.00 25 1001.7
20260902201024 80 178 7.8 22.6 0.00 0.00 0.00 25 1001.7
20260902200526 81 176 14.8 22.6 0.00 0.00 0.00 25 1002.0
20260902200024 81 148 13.9 19.1 0.00 0.00 0.00 25 1002.0
20260902195526 81 185 13.0 21.7 0.00 0.00 0.00 25 1002.1
20260902195021 80 194 13.9 21.7 0.00 0.00 0.00 26 1002.1
20260902194521 79 152 15.6 20.9 0.00 0.00 0.00 26 1002.2
20260902194024 79 159 13.9 20.9 0.00 0.00 0.00 27 1002.2
20260902193519 80 180 13.0 19.1 0.00 0.00 0.00 26 1002.3
20260902193019 79 187 10.4 20.0 0.00 0.00 0.00 26 1002.3
20260902192518 80 197 15.6 23.5 0.00 0.00 0.00 26 1002.5
20260902192017 80 167 14.8 23.5 0.00 0.00 0.00 27 1002.6
20260902191520 79 170 14.8 21.7 0.00 0.00 0.00 27 1002.6
20260902191016 79 173 12.2 25.2 0.00 0.00 0.00 27 1002.6
20260902190517 79 154 18.2 25.2 0.00 0.00 0.00 27 1002.5
20260902190016 79 201 12.2 22.6 0.00 0.00 0.00 27 1002.6
20260902185515 79 211 17.4 23.5 0.00 0.00 0.00 28 1002.8
20260902185014 79 195 13.9 23.5 0.00 0.00 0.00 28 1002.8
20260902184513 79 185 14.8 20.9 0.00 0.00 0.00 29 1002.8
20260902184013 79 160 10.4 22.6 0.00 0.00 0.00 27 1002.8
20260902183511 79 182 15.6 22.6 0.00 0.00 0.00 29 1002.9
20260902183010 78 168 9.6 20.9 0.00 0.00 0.00 29 1003.0
20260902182509 78 207 13.0 19.1 0.00 0.00 0.00 30 1003.2
20260902182009 78 190 11.3 20.0 0.00 0.00 0.00 30 1003.2
20260902181509 78 182 10.4 21.7 0.00 0.00 0.00 31 1003.2
20260902181008 78 189 12.2 22.6 0.00 0.00 0.00 31 1003.3
20260902180506 77 208 13.9 26.1 0.00 0.00 0.00 31 1003.4
20260902180007 77 190 17.4 26.1 0.00 0.00 0.00 34 1003.4
20260902175506 77 159 13.9 20.0 0.00 0.00 0.00 34 1003.3
20260902175010 77 161 15.6 25.2 0.00 0.00 0.00 33 1003.4
20260902174505 77 184 17.4 25.2 0.00 0.00 0.00 32 1003.5
20260902174008 77 151 16.5 28.7 0.00 0.00 0.00 34 1003.4
20260902173504 76 159 13.0 28.7 0.00 0.00 0.00 34 1003.4
20260902173005 77 192 11.3 25.2 0.00 0.00 0.00 35 1003.4
20260902172504 76 195 17.4 26.1 0.00 0.00 0.00 33 1003.5
20260902172004 76 198 16.5 26.1 0.00 0.00 0.00 33 1003.4
20260902171502 76 181 13.9 26.9 0.00 0.00 0.00 35 1003.4
20260902171004 76 192 16.5 23.5 0.00 0.00 0.00 34 1003.4
20260902170504 76 174 16.5 23.5 0.00 0.00 0.00 35 1003.4
20260902170002 77 159 15.6 25.2 0.00 0.00 0.00 35 1003.4
20260902165501 76 166 14.8 27.8 0.00 0.00 0.00 36 1003.3
20260902165003 76 201 18.2 27.8 0.00 0.00 0.00 35 1003.4
20260902164607 76 187 19.1 28.7 0.00 0.00 0.00 35 1003.3
20260902164100 75 178 19.1 28.7 0.00 0.00 0.00 36 1003.1
20260902163559 75 184 21.7 28.7 0.00 0.00 0.00 35 1003.1
20260902163059 75 136 16.5 28.7 0.00 0.00 0.00 37 1003.2
20260902162557 75 170 17.4 26.9 0.00 0.00 0.00 39 1003.1
20260902162059 75 179 20.0 26.9 0.00 0.00 0.00 39 1003.2
20260902161602 75 191 16.5 26.1 0.00 0.00 0.00 39 1003.2
20260902161057 75 159 19.1 27.8 0.00 0.00 0.00 38 1003.1
20260902160559 74 172 20.0 25.2 0.00 0.00 0.00 39 1003.3
20260902160054 74 172 19.1 29.5 0.00 0.00 0.00 40 1003.2
20260902155554 74 152 20.0 30.4 0.00 0.00 0.00 40 1003.3
20260902155053 74 144 19.1 26.9 0.00 0.00 0.00 41 1003.3
20260902154609 73 141 19.1 26.9 0.00 0.00 0.00 41 1003.3
20260902154052 73 145 20.0 26.1 0.00 0.00 0.00 41 1003.4
20260902153551 74 157 16.5 26.1 0.00 0.00 0.00 41 1003.5
20260902153051 74 165 18.2 23.5 0.00 0.00 0.00 41 1003.4
20260902152553 73 166 17.4 26.1 0.00 0.00 0.00 41 1003.5
20260902152049 73 152 17.4 26.1 0.00 0.00 0.00 42 1003.6
20260902151552 73 149 19.1 26.1 0.00 0.00 0.00 42 1003.7
20260902151046 72 161 18.2 24.3 0.00 0.00 0.00 44 1003.7
20260902150546 72 138 12.2 20.0 0.00 0.00 0.00 45 1003.6
20260902150046 72 181 13.9 20.9 0.00 0.00 0.00 44 1003.7
20260902145546 72 138 12.2 22.6 0.00 0.00 0.00 44 1003.7
20260902145045 71 145 13.0 21.7 0.00 0.00 0.00 45 1003.6
20260902144549 71 129 14.8 24.3 0.00 0.00 0.00 44 1003.4
20260902144044 71 150 14.8 24.3 0.00 0.00 0.00 44 1003.3
20260902143545 71 164 15.6 24.3 0.00 0.00 0.00 45 1003.3
20260902143043 71 139 11.3 27.8 0.00 0.00 0.00 43 1003.2
20260902142543 71 161 15.6 29.5 0.00 0.00 0.00 43 1003.2
20260902142043 70 151 13.0 23.5 0.00 0.00 0.00 44 1003.2
20260902141540 70 130 13.9 22.6 0.00 0.00 0.00 44 1003.3
20260902141039 69 155 15.6 22.6 0.00 0.00 0.00 45 1003.4
20260902140540 68 127 12.2 25.2 0.00 0.00 0.00 48 1003.4
20260902140041 68 157 13.9 20.9 0.00 0.00 0.00 49 1003.5
20260902135538 68 140 11.3 18.2 0.00 0.00 0.00 48 1003.4
20260902135038 68 142 13.0 20.9 0.00 0.00 0.00 49 1003.4
20260902134538 67 145 14.8 20.9 0.00 0.00 0.00 49 1003.5
20260902134038 66 141 9.6 16.5 0.00 0.00 0.00 52 1003.4
20260902133537 65 126 12.2 16.5 0.00 0.00 0.00 52 1003.4
20260902133040 64 153 11.3 14.8 0.00 0.00 0.00 53 1003.6
20260902132537 64 151 10.4 16.5 0.00 0.00 0.00 52 1003.5
20260902132036 65 174 12.2 16.5 0.00 0.00 0.00 52 1003.5
20260902131541 64 145 11.3 15.6 0.00 0.00 0.00 53 1003.6
20260902131042 65 161 10.4 15.6 0.00 0.00 0.00 52 1003.5
20260902130539 66 167 10.4 17.4 0.00 0.00 0.00 52 1003.5
20260902130136 65 132 9.6 17.4 0.00 0.00 0.00 52 1003.5
20260902125536 65 163 11.3 17.4 0.00 0.00 0.00 52 1003.3
20260902125036 65 133 11.3 19.1 0.00 0.00 0.00 53 1003.4
20260902124536 66 153 10.4 19.1 0.00 0.00 0.00 52 1003.4
20260902124035 65 161 10.4 15.6 0.00 0.00 0.00 53 1003.4
20260902123534 66 183 11.3 15.6 0.00 0.00 0.00 52 1003.5
20260902123035 65 140 11.3 14.8 0.00 0.00 0.00 53 1003.4
20260902122538 66 148 10.4 16.5 0.00 0.00 0.00 52 1003.4
20260902122034 67 157 10.4 16.5 0.00 0.00 0.00 51 1003.4
20260902121533 68 134 12.2 19.1 0.00 0.00 0.00 51 1003.2
20260902121033 68 134 11.3 19.1 0.00 0.00 0.00 50 1003.3
20260902120533 68 126 13.0 22.6 0.00 0.00 0.00 51 1003.3
20260902120134 68 127 15.6 22.6 0.00 0.00 0.00 50 1003.1
20260902115532 67 155 11.3 15.6 0.00 0.00 0.00 51 1003.2
20260902115032 68 149 9.6 14.8 0.00 0.00 0.00 49 1003.3
20260902114532 68 133 9.6 20.0 0.00 0.00 0.00 49 1003.3
20260902114031 69 135 14.8 19.1 0.00 0.00 0.00 49 1003.3
20260902113531 69 147 10.4 22.6 0.00 0.00 0.00 48 1003.3
20260902113032 69 126 11.3 22.6 0.00 0.00 0.00 48 1003.4
20260902112530 69 120 14.8 20.0 0.00 0.00 0.00 48 1003.4
20260902112031 69 152 12.2 26.1 0.00 0.00 0.00 49 1003.5
20260902111529 69 144 12.2 26.1 0.00 0.00 0.00 48 1003.5
20260902111027 68 134 11.3 19.1 0.00 0.00 0.00 50 1003.6
20260902110526 67 144 9.6 23.5 0.00 0.00 0.00 51 1003.5
20260902110026 67 168 14.8 23.5 0.00 0.00 0.00 52 1003.6
20260902105524 65 130 9.6 19.1 0.00 0.00 0.00 52 1003.5
20260902105025 64 138 11.3 19.1 0.00 0.00 0.00 53 1003.6
20260902104524 63 124 5.2 13.0 0.00 0.00 0.00 53 1003.6
20260902104026 64 153 7.0 14.8 0.00 0.00 0.00 53 1003.5
20260902103523 64 128 10.4 14.8 0.00 0.00 0.00 53 1003.6
20260902103036 63 144 10.4 13.0 0.00 0.00 0.00 52 1003.7
20260902102524 63 172 9.6 13.9 0.00 0.00 0.00 53 1003.6
20260902102023 63 142 8.7 14.8 0.00 0.00 0.00 52 1003.6
20260902101538 63 149 9.6 15.6 0.00 0.00 0.00 52 1003.6
20260902101026 63 140 10.4 18.2 0.00 0.00 0.00 52 1003.6
20260902100522 63 164 10.4 19.1 0.00 0.00 0.00 53 1003.7
20260902100022 62 185 9.6 14.8 0.00 0.00 0.00 53 1003.7
20260902095521 60 153 7.8 13.9 0.00 0.00 0.00 52 1003.7
20260902095020 60 157 6.1 12.2 0.00 0.00 0.00 53 1003.7
20260902094520 61 157 7.8 14.8 0.00 0.00 0.00 53 1003.7
20260902094019 60 126 10.4 13.9 0.00 0.00 0.00 52 1003.7
20260902093519 60 155 9.6 13.0 0.00 0.00 0.00 53 1003.7
20260902093018 61 157 8.7 15.6 0.00 0.00 0.00 53 1003.8
20260902092517 62 159 10.4 16.5 0.00 0.00 0.00 53 1003.7
20260902092018 61 145 10.4 16.5 0.00 0.00 0.00 52 1003.8
20260902091516 60 143 10.4 13.9 0.00 0.00 0.00 52 1003.8
20260902091014 60 166 7.8 13.0 0.00 0.00 0.00 53 1003.8
20260902090513 61 146 9.6 13.9 0.00 0.00 0.00 53 1003.7
20260902090012 62 166 10.4 13.9 0.00 0.00 0.00 53 1003.8
20260902085511 63 136 8.7 13.9 0.00 0.00 0.00 53 1003.9
20260902085011 65 125 7.0 13.9 0.00 0.00 0.00 51 1003.8